CST,Max TemperatureF,Mean TemperatureF,Min TemperatureF,Max Dew PointF,MeanDew PointF,Min DewpointF,Max Humidity, Mean Humidity, Min Humidity, Max Sea Level PressureIn, Mean Sea Level PressureIn, Min Sea Level PressureIn, Max VisibilityMiles, Mean VisibilityMiles, Min VisibilityMiles, Max Wind SpeedMPH, Mean Wind SpeedMPH, Max Gust SpeedMPH,PrecipitationIn, CloudCover, Events, WindDirDegrees
2013-1-1,23,11,-2,18,7,-4,96,88,80,30.33,30.24,30.10,10,5,0,17,5,20,0.00,4,Fog,208
2013-1-2,33,18,2,27,21,0,86,78,69,30.27,30.13,30.01,10,10,7,18,9,23,T,7,,291
2013-1-3,28,21,14,22,15,10,88,76,63,30.45,30.35,30.22,10,10,10,22,11,25,0.00,5,,286
2013-1-4,35,22,8,21,12,4,83,68,53,30.28,30.21,30.12,10,10,10,16,5,20,0.00,0,,204
2013-1-5,37,21,5,24,13,2,84,69,54,30.27,30.12,30.03,10,10,9,33,12,38,0.00,2,,305
2013-1-6,37,22,7,25,16,4,92,76,59,30.33,30.24,30.06,10,10,10,23,8,29,0.00,0,,227
2013-1-7,38,26,13,24,20,10,88,71,54,30.04,30.00,29.92,10,9,2,26,5,35,0.00,0,,212
2013-1-8,43,28,12,31,17,7,95,78,57,30.17,29.90,29.81,10,4,0,10,3,,0.00,2,Fog,189
2013-1-9,45,32,19,30,26,18,85,70,48,30.43,30.31,30.19,10,10,10,18,8,,0.00,0,,197
2013-1-10,39,36,33,36,31,23,100,82,53,30.27,29.90,29.61,10,6,1,15,11,21,0.12,6,Rain,165
2013-1-11,41,31,20,39,31,10,100,91,81,29.76,29.51,29.35,10,5,0,30,12,39,T,8,Fog-Snow,210
2013-1-12,20,14,8,11,4,1,80,67,54,30.21,30.06,29.78,10,10,6,31,16,39,T,4,Snow,306
2013-1-13,20,13,6,4,2,-1,80,63,45,30.38,30.28,30.11,10,10,10,18,10,23,0.00,2,,296
2013-1-14,29,16,2,12,6,-2,83,63,42,30.49,30.40,30.35,10,10,10,14,7,18,0.00,1,,228
2013-1-15,35,25,14,15,11,4,80,54,28,30.33,30.19,30.00,10,10,10,21,12,28,0.00,2,,215
2013-1-16,52,37,21,29,26,13,85,62,38,30.28,30.04,29.88,10,10,9,26,13,32,T,3,,297
2013-1-17,46,35,24,30,27,21,92,73,53,30.46,30.35,30.23,10,6,0,18,6,23,0.00,3,Fog,216
2013-1-18,60,45,29,29,25,22,82,53,23,30.20,29.97,29.87,10,10,10,22,10,25,0.00,0,,214
2013-1-19,52,34,16,26,21,4,85,61,36,30.39,30.08,29.86,10,10,10,30,14,38,0.00,0,,318
2013-1-20,21,17,13,10,6,3,80,67,54,30.48,30.42,30.35,10,9,2,16,8,18,T,5,Snow,351
2013-1-21,16,10,3,7,-4,-10,73,57,40,30.51,30.45,30.38,10,10,10,23,10,29,T,5,,340
2013-1-22,24,17,9,12,7,2,83,67,50,30.41,30.32,30.21,10,8,2,15,7,20,0.02,5,Snow,148
2013-1-23,24,16,7,13,7,-1,88,74,59,30.58,30.37,30.19,10,10,10,24,11,29,0.00,0,,342
2013-1-24,18,9,0,3,-3,-9,79,63,46,30.61,30.39,30.12,10,10,10,21,11,26,0.00,3,,130
2013-1-25,47,31,15,23,17,4,84,61,37,30.26,30.20,30.15,10,10,9,18,8,22,0.00,0,,321
2013-1-26,53,34,15,26,20,11,88,60,32,30.25,30.10,29.95,10,10,9,23,11,30,0.00,1,,144
2013-1-27,41,38,34,38,34,24,100,73,46,29.92,29.77,29.69,10,3,0,13,5,18,0.07,8,Fog-Rain,149
2013-1-28,40,35,30,39,34,28,100,96,92,29.85,29.70,29.60,3,1,0,18,6,24,0.03,8,Fog-Rain,81
2013-1-29,37,30,23,30,27,18,92,81,69,29.82,29.71,29.63,10,8,3,28,15,40,T,8,Snow,341
2013-1-30,23,16,9,18,11,2,84,72,59,30.01,29.88,29.76,10,8,3,33,19,43,T,6,Snow,327
2013-1-31,9,4,-2,1,-7,-9,80,65,49,30.48,30.28,30.01,10,10,2,37,16,44,T,3,Snow,314